STARLINK-11490, 62219

Orbit data source: Space-Track

STARLINK-11490, 62219 is a payload satellite owned by SpaceX/Seattle (US) in LEO that was launched on Thu, 05 Dec 2024 UTC via an FALCON 9 launch vehicle from the Air Force Western Test Range (AFWTR). Payload-class satellites include a variety of spacecraft equipped with specific instruments for various scientific and technological missions. These include communications satellites like Starlink; space stations such as the ISS; scientific satellites like the Hubble; Earth observation satellites from companies like Planet Labs, Umbra, and HawkEye 360; GPS; miniature CubeSats for education and research; and military/defense satellites.

Not visible in the next 10 days
Identifier
62219, 2024-231B
Orbit
LEO
Country
Flag of USUS
Related business
Manufacturer
SpaceX/Seattle
Mission
Operational Commercial Communications
Bus & Motor
STARLINK V2MD, Unknown motor
Mass
960 kg wet, ~910 kg dry
Launch date (UTC)
2024-12-05 (2 years ago)
Launch vehicle
FALCON 9
Launch site
Air Force Western Test Range (AFWTR)
Object type
Payload
Rocket body
Debris
Shape & HBR
Box + 2 Pan, 18.1 m
Radar Cross Section
36.964 m², Large (>1 m²)

Expand to show TLE details & history
Last TLE update: 11 hours ago

TLE from 11 hours ago
0 STARLINK-11490
1 62219U 24231B   26256.72477700  .00192496  00000-0  15543-2 0  9998
2 62219  53.1570 254.3868 0001495  90.8003 269.3186 15.69754730102946
Epoch: 2026-09-13T17:23Z
TLE epoch observation values (Epoch: 2026-09-13T17:23:40.732Z)
Latitude
-0.00005°
Longitude
0.75173°
Altitude
360.526 km
Speed
7.694 km/s
True Right ascension
16h 57m 32s
True Declination
0° 00' 00"
Sunlit
Object was in daylight at epoch
Visualization orbit readout
Latitude
Unknown
Longitude
Unknown
Altitude
Unknown
Speed
Unknown
Apparent Right ascension
Unknown
Apparent Declination
Unknown
Sunlit
N/A
Visualization observer readout
Local Sidereal Time
21:03:59
Azimuth
Unknown
Elevation
Unknown
Doppler factor
Unknown
Orbital elements
Apogee altitude
360.867 km
Perigee altitude
358.853 km
Semi-major axis
6,737.997 km
Eccentricity
0.00015
Inclination
53.157°
RAAN
254.3868°
Arg. of periapsis
90.8003°
True anomaly
269.30147°
Mean anomaly
269.3186°
Eccentric anomaly
269.31003°
Mean motion
3.92416 °/min
Orbital period
91.74 mins
BSTAR
0.0015543
Loading maneuver chart data...
Computing Atmospheric mass density...
Loading historical data...
Loading historical data...
Loading historical data...
Loading historical data...
Loading historical data...
Loading historical data...
Loading historical data...

Documentation

Showing up to 5 results
|